This is the latest recevied weather packets stored in our database for station/object IU5GBO-13. If no packets are shown the sender has not sent any weather packets the latest 10 day(s).
| Time | Temp. | Humidity | Pressure | Rain* | Wind** | Luminosity | Snow |
|---|---|---|---|---|---|---|---|
| 1777284452 | 23.33° C | 43% | 1020.4 hPa | - | - | - | - |
| 1777283853 | 22.78° C | 43% | 1020.6 hPa | - | - | - | - |
| 1777283252 | 22.78° C | 43% | 1020.6 hPa | - | - | - | - |
| 1777282052 | 22.22° C | 45% | 1020.8 hPa | - | - | - | - |
| 1777281452 | 22.22° C | 46% | 1020.9 hPa | - | - | - | - |
| 1777280852 | 21.67° C | 46% | 1020.9 hPa | - | - | - | - |
| 1777280252 | 21.67° C | 47% | 1020.9 hPa | - | - | - | - |
| 1777279052 | 21.67° C | 48% | 1021 hPa | - | - | - | - |
| 1777278452 | 21.11° C | 48% | 1021 hPa | - | - | - | - |
| 1777277852 | 21.11° C | 48% | 1021.1 hPa | - | - | - | - |
| 1777277253 | 20.56° C | 50% | 1021.1 hPa | - | - | - | - |
| 1777276052 | 19.44° C | 51% | 1021.2 hPa | - | - | - | - |
| 1777275452 | 19.44° C | 48% | 1021.2 hPa | - | - | - | - |
| 1777274852 | 18.33° C | 46% | 1021.2 hPa | - | - | - | - |
| 1777274252 | 17.78° C | 48% | 1021.1 hPa | - | - | - | - |
| 1777273652 | 16.67° C | 50% | 1021.3 hPa | - | - | - | - |
| 1777273052 | 15.56° C | 54% | 1021.3 hPa | - | - | - | - |
| 1777271852 | 13.89° C | 55% | 1021.3 hPa | - | - | - | - |
| 1777271252 | 13.33° C | 57% | 1021.3 hPa | - | - | - | - |
| 1777270652 | 13.33° C | 59% | 1021.2 hPa | - | - | - | - |
| 1777270052 | 11.67° C | 63% | 1021.2 hPa | - | - | - | - |
| 1777269452 | 10.56° C | 64% | 1021.2 hPa | - | - | - | - |
| 1777268852 | 10° C | 67% | 1021.2 hPa | - | - | - | - |
| 1777268252 | 9.44° C | 68% | 1021.1 hPa | - | - | - | - |
| 1777267652 | 8.89° C | 69% | 1021.1 hPa | - | - | - | - |
* Rain since midnight (hover to see other rain measurements)
** Current wind speed in m/s (hover to see current wind gust speed)